Погода в Мамоновке

Россия / Воронежская область     50°23′35″N   40°30′18″E
темп.,
°C
ветер,
м/с
пор.,
м/с
влажн.,
%
обл.,
%
осадки,
мм/ч
давл.,
гПа
погр.,
м
18 мая, вт
вт1800:00+18вюв614554 0.0 1007232
03:00+15юв475627 0.0 1007106
06:00+15вюв4116297 0.0 1008182
09:00+21юв61048100 0.0 1007491
12:00+23ююв5744100 0.0 1007983
15:00+24ю555690 0.0 10071475
18:00+19ююз61075100 1.0 1008522
21:00+15ююв2392100 1.1 100976
19 мая, ср
ср1900:00+15юв369391 0.2 1008182
03:00+13юв36963 0.9 1009123
06:00+14ю379039 0.0 1009221
09:00+19ю3464100 0.0 1008665
12:00+22ююв4556100 0.1 10081556
15:00+16юз6888100 1.3 1008434
18:00+14ю369599 3.6 1009438
21:00+13ю4892100 3.7 1009356
20 мая, чт
чт2000:00+13ю5119196 0.1 1009438
03:00+10юв499698 0.1 1010264
06:00+12ююв6119482 0.0 1009562
09:00+14ююз6980100 0.3 1009945
12:00+17ююз7107376 0.6 10111196
15:00+18юз686592 1.3 10111433
18:00+17юз587310 0.4 10121135
21:00+13ю35895 0.4 101372
21 мая, пт
пт2100:00+12ю368746 0.0 101499
03:00+13ю358478 0.0 101493
06:00+13юз3787100 0.0 1015218
09:00+17зюз237290 0.0 1017634
12:00+21ю2358100 0.0 10161093
15:00+23юв2453100 0.0 10161577
18:00+22юв3565100 0.1 1015275
21:00+18в4573100 0.1 101675
22 мая, сб
сб2200:00+17всв6137777 0.0 1015256
03:00+16в61173100 0.0 1014236
06:00+16вюв5137132 0.0 1014324
09:00+21юв712555 0.0 1014811
12:00+25ююв81149100 0.0 10131293
15:00+27ююв695163 0.0 10131466
18:00+25ююв3665100 0.0 1013159
21:00+21вюв2267100 0.0 101311